Wetbulb
51.08 51.39 51.43 51.48 51.35 51.24 51.38 51.22 51.13 51.17 51.41 51.65 52.22 52.77 52.29 52.64 53.65 49.22 44.18 49.22 53.24 60.83 60.34 55.01 56.73 54.35 51.95 48.14 49.78 47.77 38.15 38.00 41.30 42.16 44.65 49.91 49.44 50.81 50.75 49.72 54.83 61.73 66.02 66.86 67.59
50.96 51.24 51.26 51.25 51.36 51.08 51.14 51.00 50.88 51.08 50.99 51.19 51.23 51.74 52.84 53.53 48.23 45.09 52.61 58.06 58.98 60.53 51.61 50.32 51.16 53.28 48.03 46.72 47.23 44.52 38.24 41.27 45.26 46.60 46.31 49.14 46.31 47.78 49.67 49.15 52.51 62.60 67.75 68.05 67.23
50.54 50.76 50.70 50.88 50.98 50.97 50.93 50.77 50.92 51.20 51.21 51.29 51.28 51.35 52.34 52.05 43.65 48.01 59.27 59.21 59.56 58.64 53.02 51.57 51.92 50.28 47.06 48.77 46.35 42.42 41.02 45.47 47.03 49.15 49.53 48.31 48.25 47.94 47.12 45.66 50.12 59.33 65.01 66.92 65.52
50.49 50.50 50.34 50.32 50.57 50.75 50.67 50.70 50.72 50.98 51.19 51.26 51.45 51.61 51.90 47.89 34.65 51.78 58.26 57.70 58.60 55.86 53.49 52.20 50.05 44.83 44.86 44.24 48.02 42.50 45.19 45.30 46.77 48.96 48.47 47.63 49.19 46.85 47.95 49.80 51.57 53.37 64.78 67.54 65.29
50.29 50.22 50.13 50.03 50.17 50.41 50.45 50.62 50.81 50.87 51.17 51.04 51.32 51.29 47.43 40.31 40.74 48.82 57.00 54.33 51.03 49.85 49.01 48.30 47.72 47.66 42.32 46.13 46.82 45.86 45.99 46.62 46.86 47.48 47.68 48.64 47.60 47.06 47.50 50.41 51.57 51.85 61.45 65.97 65.58
49.86 49.79 49.85 49.73 49.77 50.09 50.40 50.60 50.62 50.81 50.83 50.91 50.94 50.86 43.81 34.95 47.90 49.24 48.85 48.56 48.00 46.62 45.55 46.72 47.06 51.02 46.86 47.15 46.06 47.09 46.92 47.31 47.56 46.89 47.65 46.86 47.59 46.60 49.00 50.59 51.27 50.57 49.01 56.51 62.84
49.54 49.55 49.79 49.61 49.49 49.72 50.19 50.70 50.91 51.46 51.48 51.31 51.05 48.59 41.82 39.82 47.65 47.51 48.68 47.28 47.45 46.57 43.67 46.46 47.55 46.42 47.39 46.48 51.76 49.88 44.52 46.14 46.52 46.39 45.68 48.29 45.08 45.26 49.20 49.40 49.15 48.52 48.30 49.88 52.48
49.28 49.46 49.63 49.72 49.48 49.76 50.50 50.97 51.22 51.48 52.03 51.99 50.75 45.71 38.63 50.17 47.70 47.19 47.07 46.73 48.48 47.26 46.08 46.39 46.50 45.24 45.69 48.51 48.89 48.17 47.79 39.74 44.90 45.70 45.79 46.04 40.60 46.60 49.44 48.23 47.76 47.85 48.34 49.41 49.88
48.87 49.25 49.33 50.20 50.21 50.27 50.30 50.72 51.26 51.88 52.22 51.92 46.04 43.18 38.79 51.30 45.96 47.35 46.77 45.05 46.35 47.07 46.29 47.70 45.63 42.66 44.32 40.36 41.37 44.74 39.84 41.42 42.32 45.65 44.26 43.58 41.54 46.77 48.68 49.31 48.79 48.54 49.24 48.93 48.95
49.12 48.95 49.10 49.88 50.04 49.89 49.77 50.23 52.25 52.01 51.19 50.05 48.68 39.64 43.55 41.08 45.95 45.95 47.90 48.59 45.33 43.90 41.93 40.95 38.61 37.71 39.81 38.54 34.64 37.99 39.25 40.62 40.76 43.09 43.43 41.34 42.63 45.38 47.90 48.85 48.72 47.99 48.91 49.41 49.86
49.53 48.81 48.82 49.62 49.82 49.64 46.89 43.91 39.46 40.22 41.37 39.08 40.43 40.86 42.30 45.40 47.11 44.98 47.89 45.34 45.00 40.97 33.29 37.55 31.73 30.78 34.84 39.42 43.18 42.89 41.35 40.05 43.41 44.86 42.12 40.87 40.71 44.57 46.46 46.50 47.37 45.67 46.60 48.50 49.75
49.53 49.06 48.67 48.99 49.66 49.46 46.38 39.79 39.83 39.75 32.74 42.37 43.22 43.65 45.27 44.02 39.22 42.47 47.29 41.06 39.23 34.12 37.23 34.05 28.85 35.23 38.30 40.88 39.85 40.86 39.97 39.17 43.28 46.41 44.56 40.91 40.08 42.96 45.68 46.39 47.37 47.22 46.78 48.56 48.04
49.34 49.00 48.45 49.20 49.22 47.12 43.09 43.18 46.47 45.34 33.32 40.41 43.41 41.43 40.64 41.14 37.58 39.37 43.40 40.48 37.28 34.31 34.67 32.24 34.43 38.71 36.74 37.22 37.76 38.36 37.97 39.08 39.93 44.19 45.75 43.22 40.15 41.26 44.53 46.68 48.14 48.24 47.86 47.97 47.20
49.18 48.88 48.93 49.07 45.40 45.82 42.08 47.30 47.66 46.06 29.56 33.29 37.12 39.43 40.64 40.20 36.66 43.33 45.63 41.56 37.52 33.61 35.50 35.21 38.79 37.72 35.89 33.91 38.05 34.81 42.05 41.75 40.95 39.44 35.65 44.13 34.58 41.73 44.00 45.49 46.12 47.45 47.06 45.05 46.97
48.99 48.65 48.83 47.47 41.10 43.12 45.40 47.73 47.59 43.05 8.21 34.63 36.59 43.80 41.03 36.81 37.28 39.89 45.48 41.83 35.21 35.40 35.30 32.59 35.09 36.07 35.01 35.21 38.06 36.15 41.95 41.35 41.08 38.44 37.16 37.94 36.47 36.84 44.49 43.86 44.69 45.10 46.15 46.63 46.54
48.56 48.48 48.45 45.47 43.00 46.05 48.34 48.04 45.88 26.97 5.60 31.60 36.79 35.65 35.35 36.88 36.99 39.28 40.41 42.34 41.91 36.40 36.23 34.74 40.08 38.14 37.37 40.29 39.69 41.05 38.81 38.74 39.62 38.04 30.04 35.49 36.98 35.59 39.57 43.43 44.73 46.24 48.22 48.19 47.84
48.42 48.34 45.48 44.81 40.93 46.80 47.27 43.55 24.63 9.23 32.81 30.29 31.39 34.98 34.01 32.80 34.12 34.83 33.40 31.33 28.61 25.22 25.63 32.96 33.85 36.25 39.45 36.54 39.84 38.00 33.37 27.42 25.58 28.56 27.98 37.79 35.84 38.90 44.59 47.08 48.05 47.70 48.20 48.76 48.21
48.45 48.32 45.28 45.73 47.27 46.09 43.60 34.11 11.25 26.45 29.51 34.65 33.58 34.15 30.87 33.09 32.97 33.32 31.11 27.12 32.14 30.87 27.04 24.96 25.00 32.58 37.24 35.76 33.87 36.21 34.66 29.67 23.33 24.53 27.94 38.40 33.17 37.17 46.76 48.90 49.88 50.58 48.86 49.46 49.90
48.10 41.14 42.21 46.54 46.98 44.60 37.47 21.67 16.80 29.35 33.08 30.94 32.40 29.04 28.95 32.29 32.18 31.66 29.52 28.10 30.69 32.06 25.55 25.73 25.67 36.42 37.28 37.79 37.01 36.17 32.94 38.33 31.65 32.41 28.48 32.00 37.66 43.16 45.53 46.95 48.54 48.58 48.87 48.96 50.23
38.87 39.83 41.87 46.28 45.32 41.66 32.14 22.82 27.09 36.14 34.95 33.10 26.67 30.20 25.39 28.43 28.31 28.92 28.87 33.14 30.97 34.08 35.36 30.26 23.75 34.34 36.25 38.07 38.50 36.26 39.81 29.58 32.70 21.83 21.21 29.93 31.78 34.22 39.95 42.07 45.22 44.73 45.39 46.97 48.71
38.33 34.95 44.02 45.01 44.55 37.72 28.93 26.52 33.44 38.05 36.61 32.04 29.77 28.38 29.52 27.60 28.96 27.04 29.02 33.23 34.70 33.27 34.59 30.80 28.08 28.73 34.91 31.78 31.99 31.78 30.03 32.19 34.52 31.51 26.68 23.59 28.98 39.87 38.70 40.79 41.83 43.17 43.93 43.96 43.99
38.14 28.93 44.09 43.25 34.82 28.72 24.35 33.57 36.20 35.17 38.03 35.28 34.42 32.72 30.33 29.81 29.00 28.33 27.70 31.67 37.37 35.09 28.77 31.28 29.12 23.76 29.13 34.17 35.43 34.37 31.50 31.29 17.99 18.63 25.69 27.28 31.56 39.51 41.42 40.97 41.91 42.73 44.73 45.12 43.83
34.61 35.74 43.10 40.83 27.48 25.02 31.86 30.89 35.21 33.25 33.85 33.90 32.16 34.00 33.36 30.21 23.87 29.44 30.56 36.13 37.52 33.74 28.88 31.38 24.19 20.43 23.54 28.95 32.78 29.91 32.80 33.69 32.05 28.57 25.21 17.01 27.24 39.13 39.37 40.69 41.49 41.27 42.81 44.12 44.69
35.68 23.64 30.58 35.59 36.94 32.56 30.59 29.31 28.24 36.75 34.48 35.24 33.51 34.36 31.31 28.89 31.38 25.46 29.81 35.16 36.62 35.78 40.16 35.64 28.20 24.34 19.38 22.50 28.07 25.57 28.98 32.09 30.33 21.62 24.70 24.66 27.88 34.24 37.34 38.97 39.90 41.30 42.29 42.46 43.59
34.78 27.93 31.59 23.63 26.75 31.92 33.25 32.37 29.51 28.94 35.50 35.71 31.83 32.31 30.18 22.13 25.32 26.05 30.65 31.89 34.15 36.35 33.44 32.22 22.96 26.39 27.25 28.42 28.85 28.47 28.86 30.13 28.32 28.93 22.94 26.61 27.95 32.89 36.05 36.70 40.28 41.35 42.42 42.57 43.02
28.96 30.08 35.45 30.60 35.03 31.92 32.16 27.25 30.29 31.98 32.86 31.33 29.40 33.01 31.85 26.59 28.03 23.60 28.60 28.39 27.16 31.15 29.32 30.32 20.21 25.42 17.05 28.64 28.99 25.61 28.49 29.22 29.76 30.14 29.31 29.56 28.31 34.62 37.50 38.46 38.70 41.55 41.38 40.79 40.87
40.29 39.17 34.41 33.13 31.29 28.17 28.57 31.89 32.57 34.77 34.19 35.43 32.97 29.79 28.32 31.41 33.15 32.68 32.67 32.51 31.77 28.88 26.13 24.20 20.42 19.67 14.41 26.35 24.93 15.58 26.64 29.29 30.56 32.03 31.16 25.04 29.75 34.31 34.93 37.35 37.94 38.84 39.68 39.47 40.19
MSLP
1021.13 1020.97 1020.75 1020.63 1020.53 1020.39 1020.15 1019.90 1019.59 1019.31 1019.14 1018.83 1018.46 1018.02 1017.50 1017.18 1016.58 1015.93 1015.12 1013.42 1013.01 1012.60 1012.45 1012.32 1011.77 1011.46 1011.26 1010.97 1010.83 1010.65 1010.82 1009.49 1008.09 1007.68 1005.97 1003.40 1003.45 1002.07 1000.49 1000.28 1000.27 1000.71 1001.29 1002.46 1003.53
1021.32 1021.11 1020.86 1020.69 1020.57 1020.32 1020.05 1019.81 1019.47 1019.27 1019.07 1018.80 1018.53 1018.09 1017.48 1017.10 1016.38 1014.90 1013.58 1013.04 1012.90 1012.82 1012.66 1012.58 1012.20 1011.77 1011.55 1010.81 1010.55 1010.30 1009.53 1007.47 1007.48 1006.73 1005.61 1003.71 1003.91 1003.49 1002.47 1000.78 1001.54 1001.89 1002.18 1002.96 1003.59
1021.41 1021.17 1020.89 1020.69 1020.47 1020.26 1019.97 1019.68 1019.37 1019.13 1018.82 1018.62 1018.31 1017.87 1017.50 1017.04 1015.98 1013.72 1013.01 1012.60 1012.43 1012.55 1012.43 1012.65 1012.62 1012.56 1011.79 1011.06 1010.09 1009.44 1007.99 1007.01 1006.61 1006.06 1005.47 1004.19 1003.97 1003.91 1003.26 1002.05 1001.50 1002.05 1002.41 1002.93 1003.92
1021.38 1021.19 1021.00 1020.69 1020.47 1020.23 1020.01 1019.67 1019.30 1018.91 1018.67 1018.49 1018.16 1017.81 1017.30 1017.27 1015.72 1013.17 1013.03 1012.75 1012.18 1012.14 1012.40 1012.40 1012.37 1012.52 1011.74 1010.64 1009.63 1009.30 1007.24 1007.24 1006.44 1005.85 1005.30 1004.54 1004.20 1003.82 1003.75 1002.69 1002.34 1001.94 1001.80 1002.43 1003.22
1021.51 1021.30 1021.10 1020.78 1020.51 1020.16 1019.78 1019.36 1019.03 1018.71 1018.49 1018.34 1018.14 1017.99 1017.55 1016.75 1014.81 1013.28 1013.34 1013.22 1012.67 1012.18 1012.27 1012.12 1012.07 1011.96 1011.07 1010.08 1010.06 1008.91 1006.46 1006.72 1006.38 1006.00 1005.18 1005.01 1004.18 1004.09 1003.73 1002.68 1002.08 1002.50 1002.24 1002.68 1003.28
1021.54 1021.30 1021.07 1020.75 1020.35 1019.86 1019.48 1019.07 1018.69 1018.38 1018.23 1018.09 1017.96 1018.04 1017.92 1016.70 1014.11 1013.60 1013.41 1013.12 1012.99 1012.80 1012.47 1012.26 1011.82 1011.28 1010.58 1009.80 1009.65 1007.52 1006.73 1006.45 1005.81 1005.36 1004.94 1004.78 1003.63 1004.22 1003.30 1002.72 1002.39 1002.68 1003.32 1003.05 1003.02
1021.54 1021.23 1020.91 1020.54 1020.04 1019.49 1019.03 1018.59 1018.14 1017.79 1017.66 1017.65 1017.78 1017.76 1017.15 1015.74 1013.95 1013.53 1013.19 1013.11 1012.86 1012.66 1012.36 1011.97 1011.63 1011.60 1010.49 1009.53 1008.30 1007.60 1007.15 1006.18 1005.13 1004.60 1004.25 1004.28 1003.62 1003.72 1002.91 1002.96 1002.62 1002.54 1003.02 1003.34 1003.22
1021.45 1021.09 1020.77 1020.29 1019.64 1019.05 1018.51 1017.85 1017.39 1017.13 1017.31 1017.36 1017.49 1017.34 1016.01 1013.70 1013.40 1013.28 1012.84 1012.67 1012.32 1011.88 1011.80 1011.47 1011.45 1011.04 1010.48 1009.81 1008.46 1007.39 1006.89 1005.87 1004.31 1004.16 1003.42 1004.29 1002.87 1001.84 1002.53 1002.78 1002.75 1002.36 1002.74 1002.87 1002.66
1021.33 1021.02 1020.60 1020.01 1019.30 1018.67 1018.04 1017.24 1016.88 1016.54 1016.83 1017.01 1017.29 1016.75 1014.73 1012.94 1012.91 1012.37 1012.27 1012.28 1011.99 1011.63 1011.34 1010.94 1010.66 1010.51 1010.17 1009.78 1008.75 1007.25 1005.96 1005.23 1003.94 1003.41 1003.19 1003.20 1002.01 1001.60 1002.00 1002.37 1002.54 1002.63 1002.14 1002.52 1002.47
1021.21 1020.91 1020.45 1019.90 1019.22 1018.73 1017.69 1016.33 1015.75 1016.03 1015.98 1016.21 1016.01 1016.42 1013.94 1013.09 1012.36 1011.90 1012.20 1012.05 1011.52 1011.44 1011.31 1010.99 1010.48 1009.95 1009.66 1009.47 1007.36 1006.58 1005.92 1004.86 1003.32 1003.06 1003.25 1002.40 1001.34 1001.86 1001.73 1001.97 1002.19 1002.40 1002.34 1002.01 1001.95
1021.14 1020.91 1020.52 1020.01 1019.20 1018.64 1018.05 1016.49 1017.06 1016.80 1016.52 1016.20 1015.47 1014.79 1013.37 1012.54 1011.97 1011.77 1011.84 1011.66 1011.44 1011.28 1011.32 1010.90 1010.45 1009.18 1009.00 1008.77 1008.09 1007.04 1006.10 1004.80 1003.60 1003.56 1002.76 1002.03 1001.68 1000.97 1001.27 1001.71 1001.67 1001.79 1001.94 1001.62 1001.34
1021.09 1020.87 1020.48 1019.98 1019.27 1018.74 1018.43 1018.43 1019.08 1019.63 1018.13 1015.62 1014.75 1013.97 1012.65 1011.78 1011.44 1011.40 1011.61 1011.62 1011.91 1011.85 1011.41 1010.88 1009.67 1009.03 1008.93 1008.61 1008.00 1007.25 1006.23 1004.78 1004.08 1003.11 1002.59 1001.82 1001.25 1000.43 1000.57 1000.67 1000.67 1000.60 1000.97 1000.88 1000.66
1021.05 1020.79 1020.43 1019.95 1019.25 1018.74 1018.41 1018.58 1018.71 1019.05 1018.64 1015.28 1013.41 1012.39 1012.03 1011.58 1011.26 1011.16 1011.18 1011.01 1011.29 1011.59 1011.03 1010.52 1009.29 1008.81 1008.39 1008.06 1007.75 1007.00 1006.38 1005.42 1004.50 1003.48 1002.45 1001.84 1001.01 1000.37 999.95 999.68 999.64 999.80 999.98 1000.19 999.98
1020.95 1020.70 1020.36 1019.88 1019.54 1018.71 1018.57 1018.27 1018.51 1018.78 1018.23 1015.51 1013.09 1012.00 1011.37 1011.06 1011.12 1011.02 1011.45 1011.53 1011.17 1011.21 1010.78 1010.05 1008.77 1008.33 1007.57 1007.36 1007.53 1006.97 1006.33 1005.60 1004.90 1004.20 1003.03 1002.15 1001.79 1000.94 1000.24 999.56 999.24 998.93 999.63 999.74 999.51
1020.81 1020.61 1020.28 1020.15 1020.03 1019.17 1018.89 1018.36 1018.44 1018.89 1018.13 1015.57 1013.28 1011.71 1011.35 1011.71 1011.55 1011.83 1011.56 1011.21 1011.18 1011.05 1011.63 1010.60 1009.53 1008.44 1007.37 1006.64 1006.79 1005.97 1006.29 1005.70 1004.95 1004.56 1004.27 1003.31 1003.49 1002.39 1001.79 1000.32 998.84 998.62 998.67 998.72 999.13
1020.72 1020.55 1020.27 1019.62 1019.87 1018.98 1018.57 1018.46 1018.68 1019.12 1018.19 1015.79 1013.97 1012.60 1012.10 1012.14 1012.08 1012.02 1011.86 1011.46 1010.81 1010.93 1011.18 1010.14 1009.34 1009.29 1007.85 1006.65 1005.92 1005.88 1006.24 1005.99 1005.88 1005.87 1005.35 1003.91 1004.08 1002.09 1001.37 1000.17 999.20 998.21 998.32 998.37 998.38
1020.60 1020.43 1020.40 1019.87 1019.37 1018.60 1018.59 1018.93 1019.43 1019.00 1018.07 1016.29 1014.82 1013.61 1012.96 1012.96 1012.68 1012.70 1012.58 1012.37 1012.09 1011.39 1010.97 1010.00 1010.07 1009.49 1008.66 1007.19 1005.81 1005.57 1006.57 1007.25 1006.36 1006.58 1005.55 1004.48 1003.87 1001.48 1000.28 999.53 999.17 998.94 998.37 998.38 998.55
1020.31 1020.14 1019.77 1019.28 1018.78 1018.62 1018.83 1019.52 1019.79 1019.15 1017.80 1016.63 1015.51 1014.33 1013.88 1013.73 1013.68 1013.42 1013.59 1013.74 1013.34 1013.21 1012.37 1011.70 1011.17 1011.38 1010.93 1009.94 1008.37 1006.48 1006.35 1007.49 1007.18 1007.16 1006.02 1004.71 1003.39 1000.73 999.94 999.00 998.99 999.03 998.95 999.23 999.25
1020.08 1019.77 1019.54 1018.53 1018.64 1018.74 1019.42 1020.10 1019.69 1018.62 1017.67 1016.97 1015.99 1015.24 1015.02 1014.79 1014.82 1014.52 1014.43 1014.64 1014.39 1013.88 1013.96 1013.26 1012.15 1011.66 1010.74 1009.57 1009.08 1007.12 1006.95 1007.44 1008.16 1008.33 1006.90 1005.65 1003.34 1001.57 1000.57 999.75 999.39 999.58 1000.43 1000.62 1001.02
1020.34 1019.69 1018.82 1018.36 1018.41 1019.02 1019.74 1020.23 1019.24 1018.01 1017.44 1017.06 1016.60 1016.26 1015.92 1015.67 1015.60 1015.32 1015.14 1015.07 1014.92 1014.56 1014.36 1014.27 1012.87 1011.34 1010.19 1009.40 1009.20 1009.28 1008.86 1008.18 1009.13 1009.24 1008.23 1006.94 1005.63 1004.65 1003.50 1002.06 1001.60 1001.61 1002.12 1002.05 1002.54
1020.36 1019.65 1018.55 1018.11 1018.37 1019.45 1020.17 1019.83 1018.85 1017.50 1017.29 1017.37 1017.03 1016.90 1016.70 1016.54 1016.41 1016.10 1015.87 1015.50 1015.14 1014.68 1014.77 1014.77 1014.59 1012.93 1011.88 1012.25 1011.99 1011.14 1010.89 1011.05 1010.45 1010.78 1009.88 1008.80 1009.04 1008.68 1006.96 1005.52 1004.58 1004.02 1003.93 1003.99 1004.01
1019.92 1019.78 1018.40 1018.09 1019.26 1019.95 1020.36 1019.21 1018.53 1017.68 1017.10 1016.99 1016.90 1016.96 1017.01 1017.07 1017.06 1016.72 1016.46 1015.88 1015.44 1015.10 1015.26 1015.35 1015.07 1014.24 1013.83 1013.65 1013.07 1013.10 1013.17 1013.22 1012.85 1013.21 1012.47 1011.18 1010.50 1010.12 1008.71 1007.53 1006.69 1006.06 1005.51 1005.16 1004.79
1019.90 1019.32 1018.43 1018.41 1019.90 1020.47 1019.90 1019.25 1018.74 1018.04 1017.36 1017.02 1017.11 1017.24 1017.34 1017.52 1017.60 1017.12 1016.75 1016.15 1015.92 1015.72 1016.09 1016.12 1015.95 1015.62 1014.47 1013.88 1013.24 1013.52 1014.01 1014.27 1014.33 1013.39 1013.23 1012.82 1010.92 1009.83 1009.84 1009.30 1008.34 1007.44 1006.79 1006.10 1005.77
1019.97 1020.33 1020.18 1019.92 1019.63 1019.77 1019.64 1019.14 1018.63 1017.90 1017.56 1017.34 1017.27 1017.26 1017.44 1017.57 1017.66 1017.54 1017.10 1016.58 1016.37 1016.22 1016.24 1016.65 1017.14 1017.24 1017.26 1016.60 1015.67 1014.64 1014.17 1013.86 1013.43 1013.37 1013.00 1012.57 1010.88 1009.73 1009.19 1008.90 1008.45 1008.00 1007.67 1007.10 1006.84
1020.21 1020.40 1019.74 1020.11 1019.86 1019.54 1019.14 1018.76 1018.37 1017.68 1017.31 1017.27 1017.42 1017.45 1017.69 1017.94 1017.88 1017.83 1017.43 1017.01 1016.81 1016.62 1016.80 1017.27 1017.77 1017.81 1017.63 1016.82 1015.59 1014.27 1012.95 1012.27 1012.28 1012.23 1011.88 1011.22 1010.28 1009.08 1008.65 1007.77 1007.39 1006.90 1007.04 1006.65 1006.32
1019.68 1019.64 1018.78 1019.01 1019.00 1019.02 1018.79 1018.69 1018.06 1017.57 1017.22 1017.26 1017.36 1017.45 1017.66 1018.00 1018.08 1017.92 1017.82 1017.74 1017.52 1017.11 1017.40 1017.54 1017.90 1017.92 1017.58 1016.77 1015.74 1014.55 1013.17 1012.21 1011.61 1011.25 1010.98 1010.38 1009.96 1009.04 1007.89 1007.19 1006.80 1007.21 1007.66 1007.46 1007.54
1018.39 1017.99 1018.34 1018.82 1018.67 1018.50 1018.24 1017.88 1017.54 1017.21 1017.15 1017.06 1017.30 1017.47 1017.70 1017.88 1017.93 1017.92 1017.96 1017.91 1017.81 1017.69 1017.76 1018.06 1018.61 1019.10 1018.51 1017.34 1016.07 1014.12 1012.51 1011.75 1011.27 1010.64 1010.34 1010.23 1009.88 1008.96 1008.85 1008.34 1008.65 1008.77 1008.41 1008.55 1008.52
Wind_Speed
10 11 11 11 11 11 11 11 12 13 13 15 16 17 18 19 20 14 10 10 4 6 6 12 10 9 10 5 4 2 4 11 16 14 16 24 14 11 4 5 4 4 8 17 17
10 10 11 11 11 12 12 12 13 13 13 14 15 16 18 19 16 13 13 17 12 5 6 8 11 9 6 4 5 7 6 18 4 11 15 23 8 7 14 4 4 13 15 12 16
11 11 12 13 13 13 14 14 15 15 15 15 16 17 17 17 7 1 2 5 4 5 6 7 10 11 12 10 11 5 20 14 11 15 17 22 14 6 10 5 5 14 17 16 13
12 13 13 13 14 14 14 14 15 15 15 15 15 16 20 4 2 3 5 10 4 5 8 8 9 7 6 11 8 13 23 14 18 15 17 20 13 9 9 9 9 3 18 18 19
11 12 13 13 14 15 15 16 16 16 15 14 13 11 8 2 9 10 18 17 14 7 9 11 13 13 16 7 13 20 27 18 16 19 23 19 19 11 10 12 9 9 6 13 10
11 11 13 14 15 16 16 16 16 15 13 12 10 8 4 5 7 16 16 13 10 14 15 14 12 11 16 18 20 11 16 17 17 20 22 18 21 4 15 10 11 6 2 4 14
11 12 13 15 16 18 18 17 16 14 11 10 6 4 4 10 7 10 12 9 11 12 18 18 16 15 11 17 22 24 24 20 19 19 20 18 20 18 16 6 9 7 7 7 9
11 12 14 16 18 20 20 20 19 19 13 10 4 4 6 9 7 9 8 11 12 12 16 18 17 20 15 10 12 20 21 18 24 20 22 13 25 28 14 7 9 13 8 9 9
11 13 14 16 19 21 22 24 21 19 10 5 4 4 7 5 9 8 4 11 14 17 16 16 16 17 14 11 9 12 17 21 23 21 17 22 28 23 10 13 14 14 18 13 10
11 13 16 17 19 20 25 26 10 2 7 8 9 3 4 13 12 9 4 9 11 14 16 13 8 14 11 10 16 16 18 15 21 17 19 18 26 18 9 13 15 15 18 17 15
10 13 15 16 20 20 14 6 8 3 6 4 10 9 13 10 11 4 1 8 11 9 13 14 9 16 15 16 16 13 18 17 18 12 22 23 20 19 13 11 15 11 9 16 19
9 12 15 17 19 20 7 6 4 3 8 7 13 14 14 6 14 4 4 7 4 9 15 15 15 17 16 15 17 18 20 20 20 18 21 20 26 17 18 18 20 21 13 18 14
9 12 15 17 19 8 5 7 8 7 2 10 8 5 8 7 10 5 6 6 12 5 17 15 13 16 19 19 18 20 21 18 19 17 19 19 19 18 22 15 23 19 14 15 14
8 11 14 17 6 6 5 5 7 5 3 10 8 4 6 6 4 3 7 9 5 6 9 12 16 17 19 20 20 21 20 19 21 18 14 12 13 15 9 15 21 24 15 11 12
7 10 14 7 4 4 4 6 5 3 7 13 9 10 8 10 10 7 3 4 13 12 4 9 12 14 13 17 22 21 17 20 16 14 4 14 3 9 12 19 16 17 12 11 11
7 9 13 4 2 4 6 6 0 5 4 6 12 16 9 10 7 8 6 9 5 6 8 20 15 16 15 15 15 23 18 19 16 5 8 16 7 6 5 13 9 5 8 15 13
8 9 8 5 3 5 5 2 5 8 6 7 14 17 8 11 12 6 13 17 17 17 21 11 14 17 18 10 11 13 6 4 6 4 6 6 7 14 7 9 14 3 4 3 2
9 10 7 5 5 4 3 5 7 5 4 10 11 10 5 12 11 15 6 12 9 11 10 11 7 12 12 11 12 15 14 5 8 6 3 8 5 11 15 22 13 9 6 9 16
12 3 3 3 3 3 4 4 7 4 8 9 13 6 7 9 8 12 5 12 11 15 12 8 6 1 11 15 7 6 2 13 1 8 2 3 5 10 10 12 16 14 13 15 15
3 2 2 4 3 3 5 1 2 4 6 6 5 6 10 11 8 9 9 10 10 12 9 10 8 7 13 13 7 5 8 1 5 4 3 3 2 5 18 13 14 19 16 16 14
1 0 4 2 3 4 3 5 6 5 4 4 7 7 10 8 9 8 10 6 10 9 9 6 3 10 7 8 11 11 6 7 3 5 2 4 5 11 17 17 16 15 15 13 13
3 3 4 3 4 1 1 4 2 6 0 7 5 6 7 8 6 7 11 8 12 11 8 5 3 9 12 6 10 5 7 4 2 5 2 5 5 13 17 18 20 16 16 16 9
2 2 3 5 2 2 4 3 2 5 8 4 4 5 6 5 4 5 7 12 14 6 6 8 6 5 9 4 11 8 2 4 4 3 1 3 2 10 11 15 16 18 15 11 12
2 2 5 4 2 5 4 4 3 5 7 6 5 6 6 3 2 6 8 10 12 7 12 5 2 5 5 8 11 10 11 4 4 3 3 6 9 11 6 3 4 3 13 9 10
2 5 6 2 4 4 4 8 5 4 5 2 4 6 7 4 4 2 9 8 11 11 9 2 1 4 9 12 15 15 15 12 4 6 5 6 9 11 8 7 10 6 4 8 9
5 3 3 3 4 8 4 3 3 8 5 5 5 7 5 3 5 5 6 6 3 6 7 5 4 8 6 11 12 18 14 9 10 9 10 11 11 8 8 9 6 4 7 10 15
3 3 5 5 3 3 6 8 8 6 4 4 5 4 4 5 5 6 5 5 7 7 5 3 1 4 6 11 14 8 4 4 5 7 4 5 6 7 13 14 15 12 15 14 12
Wind_Direction
27 24 21 18 11 4 359 355 352 348 347 346 340 336 331 324 317 311 272 236 278 340 329 308 303 282 286 233 286 289 251 250 244 239 267 280 300 318 321 73 51 60 100 128 134
23 19 16 10 2 356 351 345 342 337 335 334 335 334 330 327 311 280 244 274 291 350 321 303 294 296 281 243 216 198 213 239 234 257 255 276 309 339 315 238 119 100 109 127 135
16 12 9 2 357 351 346 339 335 331 330 330 328 331 330 324 296 118 226 127 131 305 272 273 279 293 272 260 220 244 236 243 253 249 268 280 293 337 312 262 182 149 144 148 144
10 5 359 354 349 343 333 327 324 321 321 319 322 326 323 293 11 98 298 301 297 286 267 260 237 230 265 235 228 236 254 249 254 272 279 276 306 298 304 253 317 187 160 160 159
3 357 351 346 339 332 327 321 315 310 307 309 315 321 332 332 254 316 348 337 322 318 292 291 285 223 239 247 244 258 244 243 257 266 272 285 283 277 281 287 314 17 159 151 162
357 352 345 340 333 328 320 315 313 302 297 302 308 321 242 288 301 323 321 318 321 320 308 292 275 250 261 248 244 250 261 251 238 241 253 261 271 324 270 286 305 2 321 236 168
350 348 343 338 329 323 321 314 305 305 315 309 298 260 255 257 254 284 300 296 291 262 278 280 280 284 331 257 241 243 257 266 251 240 244 248 269 256 265 268 290 300 297 224 252
344 344 341 335 327 323 323 318 312 304 299 286 242 248 249 250 258 285 280 303 293 257 251 263 279 283 272 274 289 251 243 247 244 242 239 207 248 250 244 224 262 287 277 279 253
341 341 340 334 326 330 325 308 295 283 253 225 224 216 274 280 301 279 272 299 283 292 298 289 245 258 269 271 250 242 240 233 248 231 238 210 243 249 221 203 239 249 266 257 267
340 341 339 333 327 330 322 306 289 291 240 225 255 275 255 311 300 314 352 319 325 262 277 283 271 239 236 228 221 218 228 240 240 231 236 229 234 232 226 195 213 228 243 254 255
336 336 333 329 326 331 339 9 10 9 25 287 288 275 276 275 284 308 22 11 338 277 251 261 253 231 223 243 257 253 239 246 246 242 221 241 246 233 214 214 246 235 228 236 240
332 330 327 326 323 326 319 73 124 192 322 272 257 265 268 245 298 1 199 303 253 307 297 245 249 243 232 251 252 261 261 254 267 241 252 237 237 244 218 212 221 232 233 249 233
325 325 323 321 318 319 67 123 142 166 267 295 250 270 299 314 301 357 4 300 310 302 292 287 255 248 232 226 249 252 258 260 266 259 258 249 247 238 238 218 215 226 218 229 223
320 322 318 323 328 311 54 34 138 117 10 353 2 302 302 299 322 41 18 323 318 252 285 264 267 259 236 229 225 248 259 260 272 262 262 256 267 282 275 251 224 219 224 214 224
318 320 318 319 290 0 345 4 131 55 59 308 351 300 318 7 348 17 32 299 336 325 7 276 313 304 277 233 221 246 248 264 271 274 338 295 63 272 284 266 242 199 208 228 219
313 319 336 44 174 277 2 323 186 37 279 318 349 322 11 3 24 346 34 7 314 318 353 283 263 277 273 295 251 226 239 274 248 271 280 250 242 251 222 230 282 202 215 220 218
308 314 318 307 253 12 339 330 31 96 297 347 331 321 18 11 357 5 9 10 17 354 346 342 28 345 17 315 285 215 99 282 252 183 224 229 259 241 228 235 232 265 305 155 332
308 312 272 246 315 349 1 48 71 259 293 350 326 328 354 17 353 349 40 17 9 6 338 349 355 358 340 326 318 311 180 229 211 205 222 202 252 247 220 261 279 295 116 68 58
310 274 259 237 225 28 58 56 190 259 359 341 313 358 345 6 7 356 50 16 5 2 9 345 313 343 329 324 307 321 219 211 268 269 63 234 245 239 246 245 255 264 59 61 69
327 275 261 175 120 50 74 255 292 295 0 329 346 351 333 346 1 5 20 37 5 351 25 328 316 330 351 344 40 10 354 227 126 266 148 293 353 27 25 19 67 58 51 54 54
292 185 238 155 82 49 146 224 236 272 87 331 327 313 322 347 342 335 353 338 353 323 35 350 314 309 347 14 7 359 22 350 325 19 320 146 94 27 19 20 31 50 48 38 38
257 53 244 98 68 89 204 284 343 294 40 246 246 293 1 336 326 10 333 359 332 345 5 333 269 323 103 65 71 67 18 357 40 351 5 299 93 14 6 14 9 7 13 10 20
230 158 330 85 142 248 261 280 320 296 306 359 331 319 327 356 334 333 331 323 358 40 18 333 337 350 330 23 7 16 12 78 247 136 58 329 242 22 357 348 0 358 345 350 346
64 51 325 9 249 200 214 211 223 265 267 261 256 291 300 307 354 302 318 333 345 351 22 41 311 10 9 327 324 311 306 222 149 91 221 232 291 330 318 246 248 184 313 319 312
60 225 193 218 282 233 258 171 225 267 202 198 313 308 298 344 320 281 313 333 342 345 349 68 246 340 327 309 299 296 308 311 259 210 160 273 306 316 298 273 202 223 259 296 302
146 152 291 239 224 180 197 261 280 282 210 232 221 290 17 344 281 307 346 342 275 329 335 310 295 322 323 315 347 324 304 298 307 299 286 288 284 280 326 349 360 236 340 13 26
267 246 106 294 307 144 206 201 216 237 344 341 288 293 305 304 3 328 297 274 274 286 289 266 95 6 288 338 331 341 292 249 262 253 248 345 307 323 17 34 64 54 43 28 13